Weather reports worldwide

Advertisment
Riga, Latvia (26422): temperature & dewpoint: 18.08.2017 02:00:00 - 24.08.2017 02:00:00 (EEST)Riga, Latvia (26422): wind speed: 18.08.2017 02:00:00 - 24.08.2017 02:00:00 (EEST)Riga, Latvia (26422): wind direction: 18.08.2017 02:00:00 - 24.08.2017 02:00:00 (EEST)Riga, Latvia (26422): reduced air pressure: 18.08.2017 02:00:00 - 24.08.2017 02:00:00 (EEST)Riga, Latvia (26422): visibility: 18.08.2017 02:00:00 - 24.08.2017 02:00:00 (EEST)
Date & Time tt [°C] td [°C] ff [km/h] ff [kn] dd ppp [hPa] vv [km]
24.08.2017 02:00:00 - - - - - - -
24.08.2017 01:00:00 - - - - - - -
24.08.2017 00:00:00 14,9 13,2 22 12 NNW 1008,1 10
23.08.2017 23:00:00 - - - - - - -
23.08.2017 22:00:00 - - - - - - -
23.08.2017 21:00:00 16,8 12,7 25 14 NW 1009,4 10
23.08.2017 20:00:00 - - - - - - -
23.08.2017 19:00:00 - - - - - - -
23.08.2017 18:00:00 17,8 12,2 25 14 NNW 1009,5 20
23.08.2017 17:00:00 - - - - - - -
23.08.2017 16:00:00 - - - - - - -
23.08.2017 15:00:00 17,8 12,2 18 10 NW 1010,6 20
23.08.2017 14:00:00 - - - - - - -
23.08.2017 13:00:00 - - - - - - -
23.08.2017 12:00:00 17,3 11,9 11 6 NNW 1011,1 20
23.08.2017 11:00:00 - - - - - - -
23.08.2017 10:00:00 - - - - - - -
23.08.2017 09:00:00 15,1 12,9 7 4 NNW 1011,1 10
23.08.2017 08:00:00 - - - - - - -
23.08.2017 07:00:00 - - - - - - -
23.08.2017 06:00:00 12,2 11,4 4 2 NW 1011,6 10
23.08.2017 05:00:00 - - - - - - -
23.08.2017 04:00:00 - - - - - - -
23.08.2017 03:00:00 13,4 12,2 4 2 NNW 1012,4 10
23.08.2017 02:00:00 - - - - - - -
23.08.2017 01:00:00 - - - - - - -
23.08.2017 00:00:00 13,8 11,9 7 4 NNW 1013,0 10
22.08.2017 23:00:00 - - - - - - -
22.08.2017 22:00:00 - - - - - - -
22.08.2017 21:00:00 15,7 11,4 7 4 NNW 1013,8 10
22.08.2017 20:00:00 - - - - - - -
22.08.2017 19:00:00 - - - - - - -
22.08.2017 18:00:00 17,1 11,9 11 6 NNW 1013,4 20
22.08.2017 17:00:00 - - - - - - -
22.08.2017 16:00:00 - - - - - - -
22.08.2017 15:00:00 17,6 12,8 4 2 W 1013,3 20
22.08.2017 14:00:00 - - - - - - -
22.08.2017 13:00:00 - - - - - - -
22.08.2017 12:00:00 17,5 12,9 4 2 SSW 1013,5 20
22.08.2017 11:00:00 - - - - - - -
22.08.2017 10:00:00 - - - - - - -
22.08.2017 09:00:00 14,4 13,5 7 4 SSE 1013,8 10
22.08.2017 08:00:00 - - - - - - -
22.08.2017 07:00:00 - - - - - - -
22.08.2017 06:00:00 13,8 12,6 7 4 SSE 1014,0 10
22.08.2017 05:00:00 - - - - - - -
22.08.2017 04:00:00 - - - - - - -
22.08.2017 03:00:00 14,6 12,4 7 4 SSW 1014,3 10
22.08.2017 02:00:00 - - - - - - -
22.08.2017 01:00:00 - - - - - - -
22.08.2017 00:00:00 15,3 12,9 7 4 SSE 1014,6 10
21.08.2017 23:00:00 - - - - - - -
21.08.2017 22:00:00 - - - - - - -
21.08.2017 21:00:00 16,8 12,9 11 6 SSE 1015,0 10
21.08.2017 20:00:00 - - - - - - -
21.08.2017 19:00:00 - - - - - - -
21.08.2017 18:00:00 18,3 12,9 11 6 E 1014,4 20
21.08.2017 17:00:00 - - - - - - -
21.08.2017 16:00:00 - - - - - - -
21.08.2017 15:00:00 19,2 11,4 7 4 SSE 1014,7 20
21.08.2017 14:00:00 - - - - - - -
21.08.2017 13:00:00 - - - - - - -
21.08.2017 12:00:00 17,3 13,5 7 4 S 1015,3 10
21.08.2017 11:00:00 - - - - - - -
21.08.2017 10:00:00 - - - - - - -
21.08.2017 09:00:00 14,9 13,5 7 4 S 1015,1 4,0
21.08.2017 08:00:00 - - - - - - -
21.08.2017 07:00:00 - - - - - - -
21.08.2017 06:00:00 14,5 13,3 7 4 SSE 1015,2 4,0
21.08.2017 05:00:00 - - - - - - -
21.08.2017 04:00:00 - - - - - - -
21.08.2017 03:00:00 14,9 13,5 7 4 S 1016,1 10
21.08.2017 02:00:00 - - - - - - -
21.08.2017 01:00:00 - - - - - - -
21.08.2017 00:00:00 15,0 13,3 11 6 SSE 1016,8 10
20.08.2017 23:00:00 - - - - - - -
20.08.2017 22:00:00 - - - - - - -
20.08.2017 21:00:00 16,6 13,8 11 6 SSE 1017,3 10
20.08.2017 20:00:00 - - - - - - -
20.08.2017 19:00:00 - - - - - - -
20.08.2017 18:00:00 18,1 13,5 11 6 SE 1017,4 20
20.08.2017 17:00:00 - - - - - - -
20.08.2017 16:00:00 - - - - - - -
20.08.2017 15:00:00 19,8 11,0 11 6 S 1018,5 20
20.08.2017 14:00:00 - - - - - - -
20.08.2017 13:00:00 - - - - - - -
20.08.2017 12:00:00 18,7 13,5 11 6 SSW 1019,0 20
20.08.2017 11:00:00 - - - - - - -
20.08.2017 10:00:00 - - - - - - -
20.08.2017 09:00:00 15,5 13,8 4 2 SSW 1018,3 10
20.08.2017 08:00:00 - - - - - - -
20.08.2017 07:00:00 - - - - - - -
20.08.2017 06:00:00 14,6 13,7 4 2 SSW 1017,5 10
20.08.2017 05:00:00 - - - - - - -
20.08.2017 04:00:00 - - - - - - -
20.08.2017 03:00:00 15,9 14,4 11 6 SW 1017,2 10
20.08.2017 02:00:00 - - - - - - -
20.08.2017 01:00:00 - - - - - - -
20.08.2017 00:00:00 17,2 14,4 11 6 SSW 1016,7 10
19.08.2017 23:00:00 - - - - - - -
19.08.2017 22:00:00 - - - - - - -
19.08.2017 21:00:00 19,4 16,0 7 4 S 1015,1 10
19.08.2017 20:00:00 - - - - - - -
19.08.2017 19:00:00 - - - - - - -
19.08.2017 18:00:00 20,9 14,5 18 10 W 1012,6 20
19.08.2017 17:00:00 - - - - - - -
19.08.2017 16:00:00 - - - - - - -
19.08.2017 15:00:00 27,6 16,5 11 6 SW 1010,1 20
19.08.2017 14:00:00 - - - - - - -
19.08.2017 13:00:00 - - - - - - -
19.08.2017 12:00:00 27,2 17,3 14 8 SSE 1009,5 20
19.08.2017 11:00:00 - - - - - - -
19.08.2017 10:00:00 - - - - - - -
19.08.2017 09:00:00 22,0 17,5 14 8 SE 1010,4 10
19.08.2017 08:00:00 - - - - - - -
19.08.2017 07:00:00 - - - - - - -
19.08.2017 06:00:00 19,2 15,6 11 6 SE 1012,1 10
19.08.2017 05:00:00 - - - - - - -
19.08.2017 04:00:00 - - - - - - -
19.08.2017 03:00:00 19,5 16,3 7 4 SSE 1013,8 10
19.08.2017 02:00:00 - - - - - - -
19.08.2017 01:00:00 - - - - - - -
19.08.2017 00:00:00 20,7 16,6 7 4 SE 1014,6 10
18.08.2017 23:00:00 - - - - - - -
18.08.2017 22:00:00 - - - - - - -
18.08.2017 21:00:00 23,2 15,7 11 6 SE 1014,9 10
18.08.2017 20:00:00 - - - - - - -
18.08.2017 19:00:00 - - - - - - -
18.08.2017 18:00:00 24,8 14,8 14 8 SSE 1014,8 20
18.08.2017 17:00:00 - - - - - - -
18.08.2017 16:00:00 - - - - - - -
18.08.2017 15:00:00 22,4 13,4 18 10 SE 1016,0 20
18.08.2017 14:00:00 - - - - - - -
18.08.2017 13:00:00 - - - - - - -
18.08.2017 12:00:00 21,4 12,5 14 8 ESE 1017,4 20
18.08.2017 11:00:00 - - - - - - -
18.08.2017 10:00:00 - - - - - - -
18.08.2017 09:00:00 17,7 13,3 7 4 E 1018,3 10
18.08.2017 08:00:00 - - - - - - -
18.08.2017 07:00:00 - - - - - - -
18.08.2017 06:00:00 14,3 13,4 4 2 E 1019,0 10
18.08.2017 05:00:00 - - - - - - -
18.08.2017 04:00:00 - - - - - - -
18.08.2017 03:00:00 15,4 13,7 7 4 SSW 1019,3 10
18.08.2017 02:00:00 - - - - - - -

tt = temperature
td = dewpoint
ff = wind speed
dd = wind direction
ppp = reduced air pressure
vv = visibility

Next stations